Location: Coffee Ditch
(40.9640°N, 122.7500°W)
Time: 00:32:08
(UTC+00:00)

Cosmos 1602 Rocket - Pass Details

Date: 20 December 2025
Orbit: 596 x 626 km, 82.5° (Epoch: 16 January)

Event Time Altitude Azimuth Distance (km) Brightness Sun altitude
Rises 13:44:39 0° 205° (SSW) 2,897 6.9 -19.5°
Reaches altitude 10° 13:46:59 10° 213° (SSW) 1,994 6.0 -19.1°
Maximum altitude 13:51:08 39° 282° (WNW) 941 3.9 -18.3°
Drops below altitude 10° 13:55:18 10° 352° (N) 1,998 5.9 -17.5°
Sets 13:57:39 0° 0° (N) 2,905 6.8 -17.1°
